Year,Month,Day,Hour,Minute,Value (Times are PST for temperature in C)
2010,07,09,00,00,18.60
2010,07,09,00,01,18.60
2010,07,09,00,02,18.60
2010,07,09,00,03,18.50
2010,07,09,00,04,18.50
2010,07,09,00,05,18.50
2010,07,09,00,06,18.40
2010,07,09,00,07,18.40
2010,07,09,00,08,18.40
2010,07,09,00,09,18.40
2010,07,09,00,10,18.30
2010,07,09,00,11,18.30
2010,07,09,00,12,18.30
2010,07,09,00,13,18.30
2010,07,09,00,14,18.20
2010,07,09,00,15,18.20
2010,07,09,00,16,18.20
2010,07,09,00,17,18.20
2010,07,09,00,18,18.20
2010,07,09,00,19,18.20
2010,07,09,00,20,18.20
2010,07,09,00,21,18.10
2010,07,09,00,22,18.10
2010,07,09,00,23,18.10
2010,07,09,00,24,18.10
2010,07,09,00,25,18.10
2010,07,09,00,26,18.10
2010,07,09,00,27,18.10
2010,07,09,00,28,18.00
2010,07,09,00,29,18.00
2010,07,09,00,30,18.00
2010,07,09,00,31,18.00
2010,07,09,00,32,17.90
2010,07,09,00,33,17.90
2010,07,09,00,34,17.90
2010,07,09,00,35,17.90
2010,07,09,00,36,17.90
2010,07,09,00,37,17.90
2010,07,09,00,38,17.80
2010,07,09,00,39,17.80
2010,07,09,00,40,17.80
2010,07,09,00,41,17.80
2010,07,09,00,42,17.80
2010,07,09,00,43,17.80
2010,07,09,00,44,17.70
2010,07,09,00,45,17.70
2010,07,09,00,46,17.70
2010,07,09,00,47,17.70
2010,07,09,00,48,17.70
2010,07,09,00,49,17.60
2010,07,09,00,50,17.60
2010,07,09,00,51,17.60
2010,07,09,00,52,17.60
2010,07,09,00,53,17.50
2010,07,09,00,54,17.50
2010,07,09,00,55,17.40
2010,07,09,00,56,17.40
2010,07,09,00,57,17.40
2010,07,09,00,58,17.40
2010,07,09,00,59,17.30
2010,07,09,01,00,17.30
2010,07,09,01,01,17.30
2010,07,09,01,02,17.30
2010,07,09,01,03,17.20
2010,07,09,01,04,17.20
2010,07,09,01,05,17.20
2010,07,09,01,06,17.20
2010,07,09,01,07,17.20
2010,07,09,01,08,17.10
2010,07,09,01,09,17.10
2010,07,09,01,10,17.10
2010,07,09,01,11,17.10
2010,07,09,01,12,17.10
2010,07,09,01,13,17.10
2010,07,09,01,14,17.00
2010,07,09,01,15,17.00
2010,07,09,01,16,17.00
2010,07,09,01,17,16.90
2010,07,09,01,18,16.90
2010,07,09,01,19,16.90
2010,07,09,01,20,16.90
2010,07,09,01,21,16.90
2010,07,09,01,22,16.90
2010,07,09,01,23,16.90
2010,07,09,01,24,16.80
2010,07,09,01,25,16.80
2010,07,09,01,26,16.80
2010,07,09,01,27,16.80
2010,07,09,01,28,16.80
2010,07,09,01,29,16.80
2010,07,09,01,30,16.80
2010,07,09,01,31,16.80
2010,07,09,01,32,16.80
2010,07,09,01,33,16.80
2010,07,09,01,34,16.70
2010,07,09,01,35,16.70
2010,07,09,01,36,16.70
2010,07,09,01,37,16.70
2010,07,09,01,38,16.70
2010,07,09,01,39,16.60
2010,07,09,01,40,16.60
2010,07,09,01,41,16.60
2010,07,09,01,42,16.60
2010,07,09,01,43,16.60
2010,07,09,01,44,16.60
2010,07,09,01,45,16.50
2010,07,09,01,46,16.50
2010,07,09,01,47,16.50
2010,07,09,01,48,16.40
2010,07,09,01,49,16.40
2010,07,09,01,50,16.40
2010,07,09,01,51,16.40
2010,07,09,01,52,16.40
2010,07,09,01,53,16.40
2010,07,09,01,54,16.40
2010,07,09,01,55,16.30
2010,07,09,01,56,16.30
2010,07,09,01,57,16.30
2010,07,09,01,58,16.30
2010,07,09,01,59,16.30
2010,07,09,02,00,16.30
2010,07,09,02,01,16.30
2010,07,09,02,02,16.30
2010,07,09,02,03,16.20
2010,07,09,02,04,16.20
2010,07,09,02,05,16.20
2010,07,09,02,06,16.20
2010,07,09,02,07,16.20
2010,07,09,02,08,16.10
2010,07,09,02,09,16.10
2010,07,09,02,10,16.10
2010,07,09,02,11,16.10
2010,07,09,02,12,16.10
2010,07,09,02,13,16.10
2010,07,09,02,14,16.00
2010,07,09,02,15,16.00
2010,07,09,02,16,16.00
2010,07,09,02,17,15.90
2010,07,09,02,18,15.90
2010,07,09,02,19,15.90
2010,07,09,02,20,15.90
2010,07,09,02,21,15.90
2010,07,09,02,22,15.80
2010,07,09,02,23,15.80
2010,07,09,02,24,15.80
2010,07,09,02,25,15.80
2010,07,09,02,26,15.80
2010,07,09,02,27,15.80
2010,07,09,02,28,15.70
2010,07,09,02,29,15.70
2010,07,09,02,30,15.70
2010,07,09,02,31,15.70
2010,07,09,02,32,15.60
2010,07,09,02,33,15.60
2010,07,09,02,34,15.60
2010,07,09,02,35,15.60
2010,07,09,02,36,15.60
2010,07,09,02,37,15.60
2010,07,09,02,38,15.50
2010,07,09,02,39,15.50
2010,07,09,02,40,15.50
2010,07,09,02,41,15.40
2010,07,09,02,42,15.40
2010,07,09,02,43,15.40
2010,07,09,02,44,15.40
2010,07,09,02,45,15.40
2010,07,09,02,46,15.30
2010,07,09,02,47,15.30
2010,07,09,02,48,15.30
2010,07,09,02,49,15.30
2010,07,09,02,50,15.30
2010,07,09,02,51,15.30
2010,07,09,02,52,15.30
2010,07,09,02,53,15.30
2010,07,09,02,54,15.30
2010,07,09,02,55,15.30
2010,07,09,02,56,15.30
2010,07,09,02,57,15.20
2010,07,09,02,58,15.20
2010,07,09,02,59,15.20
2010,07,09,03,00,15.20
2010,07,09,03,01,15.20
2010,07,09,03,02,15.20
2010,07,09,03,03,15.20
2010,07,09,03,04,15.20
2010,07,09,03,05,15.20
2010,07,09,03,06,15.20
2010,07,09,03,07,15.20
2010,07,09,03,08,15.10
2010,07,09,03,09,15.10
2010,07,09,03,10,15.10
2010,07,09,03,11,15.10
2010,07,09,03,12,15.20
2010,07,09,03,13,15.20
2010,07,09,03,14,15.20
2010,07,09,03,15,15.20
2010,07,09,03,16,15.20
2010,07,09,03,17,15.20
2010,07,09,03,18,15.20
2010,07,09,03,19,15.20
2010,07,09,03,20,15.20
2010,07,09,03,21,15.20
2010,07,09,03,22,15.20
2010,07,09,03,23,15.20
2010,07,09,03,24,15.10
2010,07,09,03,25,15.10
2010,07,09,03,26,15.10
2010,07,09,03,27,15.10
2010,07,09,03,28,15.00
2010,07,09,03,29,15.00
2010,07,09,03,30,15.00
2010,07,09,03,31,15.00
2010,07,09,03,32,15.00
2010,07,09,03,33,15.00
2010,07,09,03,34,15.00
2010,07,09,03,35,15.00
2010,07,09,03,36,15.00
2010,07,09,03,37,15.00
2010,07,09,03,38,15.00
2010,07,09,03,39,15.00
2010,07,09,03,40,15.00
2010,07,09,03,41,14.90
2010,07,09,03,42,14.90
2010,07,09,03,43,14.90
2010,07,09,03,44,14.80
2010,07,09,03,45,14.80
2010,07,09,03,46,14.80
2010,07,09,03,47,14.80
2010,07,09,03,48,14.80
2010,07,09,03,49,14.70
2010,07,09,03,50,14.70
2010,07,09,03,51,14.70
2010,07,09,03,52,14.70
2010,07,09,03,53,14.60
2010,07,09,03,54,14.60
2010,07,09,03,55,14.60
2010,07,09,03,56,14.60
2010,07,09,03,57,14.60
2010,07,09,03,58,14.60
2010,07,09,03,59,14.60
2010,07,09,04,00,14.50
2010,07,09,04,01,14.50
2010,07,09,04,02,14.50
2010,07,09,04,03,14.50
2010,07,09,04,04,14.50
2010,07,09,04,05,14.40
2010,07,09,04,06,14.40
2010,07,09,04,07,14.40
2010,07,09,04,08,14.40
2010,07,09,04,09,14.40
2010,07,09,04,10,14.30
2010,07,09,04,11,14.30
2010,07,09,04,12,14.30
2010,07,09,04,13,14.30
2010,07,09,04,14,14.30
2010,07,09,04,15,14.30
2010,07,09,04,16,14.30
2010,07,09,04,17,14.30
2010,07,09,04,18,14.30
2010,07,09,04,19,14.30
2010,07,09,04,20,14.30
2010,07,09,04,21,14.30
2010,07,09,04,22,14.30
2010,07,09,04,23,14.30
2010,07,09,04,24,14.30
2010,07,09,04,25,14.30
2010,07,09,04,26,14.20
2010,07,09,04,27,14.20
2010,07,09,04,28,14.20
2010,07,09,04,29,14.20
2010,07,09,04,30,14.20
2010,07,09,04,31,14.20
2010,07,09,04,32,14.20
2010,07,09,04,33,14.20
2010,07,09,04,34,14.10
2010,07,09,04,35,14.10
2010,07,09,04,36,14.10
2010,07,09,04,37,14.10
2010,07,09,04,38,14.10
2010,07,09,04,39,14.10
2010,07,09,04,40,14.00
2010,07,09,04,41,14.00
2010,07,09,04,42,14.00
2010,07,09,04,43,14.00
2010,07,09,04,44,13.90
2010,07,09,04,45,13.90
2010,07,09,04,46,13.90
2010,07,09,04,47,13.90
2010,07,09,04,48,13.80
2010,07,09,04,49,13.80
2010,07,09,04,50,13.80
2010,07,09,04,51,13.80
2010,07,09,04,52,13.80
2010,07,09,04,53,13.80
2010,07,09,04,54,13.80
2010,07,09,04,55,13.70
2010,07,09,04,56,13.70
2010,07,09,04,57,13.70
2010,07,09,04,58,13.70
2010,07,09,04,59,13.70
2010,07,09,05,00,13.70
2010,07,09,05,01,13.70
2010,07,09,05,02,13.60
2010,07,09,05,03,13.60
2010,07,09,05,04,13.60
2010,07,09,05,05,13.60
2010,07,09,05,06,13.60
2010,07,09,05,07,13.60
2010,07,09,05,08,13.60
2010,07,09,05,09,13.60
2010,07,09,05,10,13.60
2010,07,09,05,11,13.50
2010,07,09,05,12,13.50
2010,07,09,05,13,13.50
2010,07,09,05,14,13.50
2010,07,09,05,15,13.50
2010,07,09,05,16,13.40
2010,07,09,05,17,13.40
2010,07,09,05,18,13.40
2010,07,09,05,19,13.40
2010,07,09,05,20,13.40
2010,07,09,05,21,13.40
2010,07,09,05,22,13.40
2010,07,09,05,23,13.40
2010,07,09,05,24,13.30
2010,07,09,05,25,13.30
2010,07,09,05,26,13.30
2010,07,09,05,27,13.30
2010,07,09,05,28,13.30
2010,07,09,05,29,13.30
2010,07,09,05,30,13.30
2010,07,09,05,31,13.30
2010,07,09,05,32,13.30
2010,07,09,05,33,13.30
2010,07,09,05,34,13.30
2010,07,09,05,35,13.30
2010,07,09,05,36,13.30
2010,07,09,05,37,13.30
2010,07,09,05,38,13.30
2010,07,09,05,39,13.30
2010,07,09,05,40,13.30
2010,07,09,05,41,13.30
2010,07,09,05,42,13.30
2010,07,09,05,43,13.30
2010,07,09,05,44,13.30
2010,07,09,05,45,13.30
2010,07,09,05,46,13.40
2010,07,09,05,47,13.40
2010,07,09,05,48,13.40
2010,07,09,05,49,13.40
2010,07,09,05,50,13.40
2010,07,09,05,51,13.40
2010,07,09,05,52,13.40
2010,07,09,05,53,13.40
2010,07,09,05,54,13.30
2010,07,09,05,55,13.30
2010,07,09,05,56,13.30
2010,07,09,05,57,13.30
2010,07,09,05,58,13.30
2010,07,09,05,59,13.30
2010,07,09,06,00,13.30
2010,07,09,06,01,13.30
2010,07,09,06,02,13.30
2010,07,09,06,03,13.30
2010,07,09,06,04,13.30
2010,07,09,06,05,13.20
2010,07,09,06,06,13.20
2010,07,09,06,07,13.20
2010,07,09,06,08,13.20
2010,07,09,06,09,13.20
2010,07,09,06,10,13.20
2010,07,09,06,11,13.20
2010,07,09,06,12,13.20
2010,07,09,06,13,13.20
2010,07,09,06,14,13.20
2010,07,09,06,15,13.20
2010,07,09,06,16,13.20
2010,07,09,06,17,13.20
2010,07,09,06,18,13.20
2010,07,09,06,19,13.20
2010,07,09,06,20,13.20
2010,07,09,06,21,13.20
2010,07,09,06,22,13.20
2010,07,09,06,23,13.20
2010,07,09,06,24,13.20
2010,07,09,06,25,13.20
2010,07,09,06,26,13.20
2010,07,09,06,27,13.20
2010,07,09,06,28,13.10
2010,07,09,06,29,13.10
2010,07,09,06,30,13.10
2010,07,09,06,31,13.10
2010,07,09,06,32,13.10
2010,07,09,06,33,13.10
2010,07,09,06,34,13.10
2010,07,09,06,35,13.10
2010,07,09,06,36,13.10
2010,07,09,06,37,13.10
2010,07,09,06,38,13.10
2010,07,09,06,39,13.10
2010,07,09,06,40,13.10
2010,07,09,06,41,13.10
2010,07,09,06,42,13.10
2010,07,09,06,43,13.10
2010,07,09,06,44,13.10
2010,07,09,06,45,13.10
2010,07,09,06,46,13.10
2010,07,09,06,47,13.10
2010,07,09,06,48,13.10
2010,07,09,06,49,13.10
2010,07,09,06,50,13.10
2010,07,09,06,51,13.10
2010,07,09,06,52,13.10
2010,07,09,06,53,13.10
2010,07,09,06,54,13.10
2010,07,09,06,55,13.10
2010,07,09,06,56,13.20
2010,07,09,06,57,13.20
2010,07,09,06,58,13.20
2010,07,09,06,59,13.20
2010,07,09,07,00,13.20
2010,07,09,07,01,13.30
2010,07,09,07,02,13.30
2010,07,09,07,03,13.30
2010,07,09,07,04,13.30
2010,07,09,07,05,13.30
2010,07,09,07,06,13.40
2010,07,09,07,07,13.40
2010,07,09,07,08,13.50
2010,07,09,07,09,13.50
2010,07,09,07,10,13.60
2010,07,09,07,11,13.60
2010,07,09,07,12,13.70
2010,07,09,07,13,13.70
2010,07,09,07,14,13.70
2010,07,09,07,15,13.80
2010,07,09,07,16,13.80
2010,07,09,07,17,13.90
2010,07,09,07,18,14.00
2010,07,09,07,19,14.10
2010,07,09,07,20,14.10
2010,07,09,07,21,14.20
2010,07,09,07,22,14.30
2010,07,09,07,23,14.40
2010,07,09,07,24,14.50
2010,07,09,07,25,14.60
2010,07,09,07,26,14.70
2010,07,09,07,27,14.80
2010,07,09,07,28,14.90
2010,07,09,07,29,15.00
2010,07,09,07,30,15.00
2010,07,09,07,31,15.00
2010,07,09,07,32,15.00
2010,07,09,07,33,15.10
2010,07,09,07,34,15.20
2010,07,09,07,35,15.30
2010,07,09,07,36,15.40
2010,07,09,07,37,15.50
2010,07,09,07,38,15.50
2010,07,09,07,39,15.60
2010,07,09,07,40,15.70
2010,07,09,07,41,15.80
2010,07,09,07,42,15.80
2010,07,09,07,43,15.90
2010,07,09,07,44,16.00
2010,07,09,07,45,16.00
2010,07,09,07,46,16.10
2010,07,09,07,47,16.10
2010,07,09,07,48,16.20
2010,07,09,07,49,16.30
2010,07,09,07,50,16.30
2010,07,09,07,51,16.40
2010,07,09,07,52,16.50
2010,07,09,07,53,16.50
2010,07,09,07,54,16.60
2010,07,09,07,55,16.70
2010,07,09,07,56,16.80
2010,07,09,07,57,16.90
2010,07,09,07,58,17.00
2010,07,09,07,59,17.20
2010,07,09,08,00,17.30
2010,07,09,08,01,17.40
2010,07,09,08,02,17.50
2010,07,09,08,03,17.70
2010,07,09,08,04,17.80
2010,07,09,08,05,18.00
2010,07,09,08,06,18.20
2010,07,09,08,07,18.40
2010,07,09,08,08,18.50
2010,07,09,08,09,18.60
2010,07,09,08,10,18.70
2010,07,09,08,11,18.80
2010,07,09,08,12,19.00
2010,07,09,08,13,19.10
2010,07,09,08,14,19.30
2010,07,09,08,15,19.40
2010,07,09,08,16,19.50
2010,07,09,08,17,19.60
2010,07,09,08,18,19.60
2010,07,09,08,19,19.70
2010,07,09,08,20,19.80
2010,07,09,08,21,19.90
2010,07,09,08,22,20.00
2010,07,09,08,23,20.10
2010,07,09,08,24,20.20
2010,07,09,08,25,20.30
2010,07,09,08,26,20.40
2010,07,09,08,27,20.50
2010,07,09,08,28,20.60
2010,07,09,08,29,20.70
2010,07,09,08,30,20.80
2010,07,09,08,31,20.80
2010,07,09,08,32,20.90
2010,07,09,08,33,20.90
2010,07,09,08,34,21.00
2010,07,09,08,35,21.10
2010,07,09,08,36,21.20
2010,07,09,08,37,21.30
2010,07,09,08,38,21.40
2010,07,09,08,39,21.60
2010,07,09,08,40,21.70
2010,07,09,08,41,21.80
2010,07,09,08,42,21.80
2010,07,09,08,43,21.90
2010,07,09,08,44,22.00
2010,07,09,08,45,22.10
2010,07,09,08,46,22.20
2010,07,09,08,47,22.30
2010,07,09,08,48,22.40
2010,07,09,08,49,22.50
2010,07,09,08,50,22.60
2010,07,09,08,51,22.70
2010,07,09,08,52,22.80
2010,07,09,08,53,22.90
2010,07,09,08,54,22.90
2010,07,09,08,55,23.00
2010,07,09,08,56,23.10
2010,07,09,08,57,23.10
2010,07,09,08,58,23.20
2010,07,09,08,59,23.30
2010,07,09,09,00,23.40
2010,07,09,09,01,23.50
2010,07,09,09,02,23.60
2010,07,09,09,03,23.70
2010,07,09,09,04,23.90
2010,07,09,09,05,24.00
2010,07,09,09,06,24.00
2010,07,09,09,07,24.10
2010,07,09,09,08,24.20
2010,07,09,09,09,24.30
2010,07,09,09,10,24.30
2010,07,09,09,11,24.30
2010,07,09,09,12,24.30
2010,07,09,09,13,24.30
2010,07,09,09,14,24.40
2010,07,09,09,15,24.40
2010,07,09,09,16,24.40
2010,07,09,09,17,24.50
2010,07,09,09,18,24.60
2010,07,09,09,19,24.70
2010,07,09,09,20,24.70
2010,07,09,09,21,24.80
2010,07,09,09,22,24.80
2010,07,09,09,23,24.90
2010,07,09,09,24,24.90
2010,07,09,09,25,25.00
2010,07,09,09,26,25.10
2010,07,09,09,27,25.10
2010,07,09,09,28,25.20
2010,07,09,09,29,25.30
2010,07,09,09,30,25.30
2010,07,09,09,31,25.40
2010,07,09,09,32,25.40
2010,07,09,09,33,25.50
2010,07,09,09,34,25.60
2010,07,09,09,35,25.70
2010,07,09,09,36,25.80
2010,07,09,09,37,25.90
2010,07,09,09,38,25.90
2010,07,09,09,39,25.90
2010,07,09,09,40,25.90
2010,07,09,09,41,26.00
2010,07,09,09,42,26.10
2010,07,09,09,43,26.10
2010,07,09,09,44,26.20
2010,07,09,09,45,26.30
2010,07,09,09,46,26.30
2010,07,09,09,47,26.30
2010,07,09,09,48,26.30
2010,07,09,09,49,26.30
2010,07,09,09,50,26.30
2010,07,09,09,51,26.20
2010,07,09,09,52,26.20
2010,07,09,09,53,26.30
2010,07,09,09,54,26.30
2010,07,09,09,55,26.40
2010,07,09,09,56,26.40
2010,07,09,09,57,26.50
2010,07,09,09,58,26.60
2010,07,09,09,59,26.70
2010,07,09,10,00,26.80
2010,07,09,10,01,26.90
2010,07,09,10,02,26.90
2010,07,09,10,03,27.00
2010,07,09,10,04,27.10
2010,07,09,10,05,27.20
2010,07,09,10,06,27.30
2010,07,09,10,07,27.30
2010,07,09,10,08,27.30
2010,07,09,10,09,27.30
2010,07,09,10,10,27.30
2010,07,09,10,11,27.20
2010,07,09,10,12,27.10
2010,07,09,10,13,27.00
2010,07,09,10,14,26.90
2010,07,09,10,15,26.80
2010,07,09,10,16,26.80
2010,07,09,10,17,26.80
2010,07,09,10,18,26.90
2010,07,09,10,19,26.90
2010,07,09,10,20,26.80
2010,07,09,10,21,26.80
2010,07,09,10,22,26.70
2010,07,09,10,23,26.70
2010,07,09,10,24,26.70
2010,07,09,10,25,26.70
2010,07,09,10,26,26.80
2010,07,09,10,27,26.90
2010,07,09,10,28,27.00
2010,07,09,10,29,27.10
2010,07,09,10,30,27.20
2010,07,09,10,31,27.20
2010,07,09,10,32,27.30
2010,07,09,10,33,27.40
2010,07,09,10,34,27.50
2010,07,09,10,35,27.60
2010,07,09,10,36,27.60
2010,07,09,10,37,27.70
2010,07,09,10,38,27.70
2010,07,09,10,39,27.80
2010,07,09,10,40,27.90
2010,07,09,10,41,27.90
2010,07,09,10,42,28.00
2010,07,09,10,43,28.10
2010,07,09,10,44,28.10
2010,07,09,10,45,28.20
2010,07,09,10,46,28.20
2010,07,09,10,47,28.30
2010,07,09,10,48,28.40
2010,07,09,10,49,28.60
2010,07,09,10,50,28.70
2010,07,09,10,51,28.80
2010,07,09,10,52,28.90
2010,07,09,10,53,29.00
2010,07,09,10,54,29.10
2010,07,09,10,55,29.10
2010,07,09,10,56,29.20
2010,07,09,10,57,29.20
2010,07,09,10,58,29.30
2010,07,09,10,59,29.30
2010,07,09,11,00,29.40
2010,07,09,11,01,29.40
2010,07,09,11,02,29.50
2010,07,09,11,03,29.40
2010,07,09,11,04,29.30
2010,07,09,11,05,29.20
2010,07,09,11,06,29.20
2010,07,09,11,07,29.20
2010,07,09,11,08,29.20
2010,07,09,11,09,29.20
2010,07,09,11,10,29.20
2010,07,09,11,11,29.20
2010,07,09,11,12,29.20
2010,07,09,11,13,29.30
2010,07,09,11,14,29.30
2010,07,09,11,15,29.30
2010,07,09,11,16,29.20
2010,07,09,11,17,29.10
2010,07,09,11,18,29.10
2010,07,09,11,19,29.00
2010,07,09,11,20,28.90
2010,07,09,11,21,28.90
2010,07,09,11,22,28.90
2010,07,09,11,23,28.90
2010,07,09,11,24,29.00
2010,07,09,11,25,29.00
2010,07,09,11,26,29.10
2010,07,09,11,27,29.20
2010,07,09,11,28,29.30
2010,07,09,11,29,29.30
2010,07,09,11,30,29.30
2010,07,09,11,31,29.30
2010,07,09,11,32,29.30
2010,07,09,11,33,29.30
2010,07,09,11,34,29.30
2010,07,09,11,35,29.30
2010,07,09,11,36,29.30
2010,07,09,11,37,29.30
2010,07,09,11,38,29.40
2010,07,09,11,39,29.40
2010,07,09,11,40,29.40
2010,07,09,11,41,29.40
2010,07,09,11,42,29.40
2010,07,09,11,43,29.40
2010,07,09,11,44,29.40
2010,07,09,11,45,29.40
2010,07,09,11,46,29.40
2010,07,09,11,47,29.40
2010,07,09,11,48,29.50
2010,07,09,11,49,29.60
2010,07,09,11,50,29.60
2010,07,09,11,51,29.70
2010,07,09,11,52,29.80
2010,07,09,11,53,29.90
2010,07,09,11,54,29.90
2010,07,09,11,55,29.90
2010,07,09,11,56,30.00
2010,07,09,11,57,30.10
2010,07,09,11,58,30.10
2010,07,09,11,59,30.10
2010,07,09,12,00,30.20
2010,07,09,12,01,30.30
2010,07,09,12,02,30.30
2010,07,09,12,03,30.40
2010,07,09,12,04,30.30
2010,07,09,12,05,30.20
2010,07,09,12,06,30.20
2010,07,09,12,07,30.20
2010,07,09,12,08,30.20
2010,07,09,12,09,30.20
2010,07,09,12,10,30.20
2010,07,09,12,11,30.20
2010,07,09,12,12,30.20
2010,07,09,12,13,30.20
2010,07,09,12,14,30.20
2010,07,09,12,15,30.10
2010,07,09,12,16,30.10
2010,07,09,12,17,30.00
2010,07,09,12,18,30.00
2010,07,09,12,19,29.90
2010,07,09,12,20,29.90
2010,07,09,12,21,29.80
2010,07,09,12,22,29.80
2010,07,09,12,23,29.80
2010,07,09,12,24,29.90
2010,07,09,12,25,29.90
2010,07,09,12,26,30.00
2010,07,09,12,27,30.10
2010,07,09,12,28,30.20
2010,07,09,12,29,30.40
2010,07,09,12,30,30.50
2010,07,09,12,31,30.50
2010,07,09,12,32,30.60
2010,07,09,12,33,30.60
2010,07,09,12,34,30.60
2010,07,09,12,35,30.70
2010,07,09,12,36,30.80
2010,07,09,12,37,30.90
2010,07,09,12,38,30.90
2010,07,09,12,39,31.00
2010,07,09,12,40,31.10
2010,07,09,12,41,31.20
2010,07,09,12,42,31.20
2010,07,09,12,43,31.30
2010,07,09,12,44,31.30
2010,07,09,12,45,31.40
2010,07,09,12,46,31.40
2010,07,09,12,47,31.50
2010,07,09,12,48,31.60
2010,07,09,12,49,31.60
2010,07,09,12,50,31.60
2010,07,09,12,51,31.60
2010,07,09,12,52,31.50
2010,07,09,12,53,31.60
2010,07,09,12,54,31.60
2010,07,09,12,55,31.60
2010,07,09,12,56,31.70
2010,07,09,12,57,31.70
2010,07,09,12,58,31.80
2010,07,09,12,59,31.80
2010,07,09,13,00,31.90
2010,07,09,13,01,31.90
2010,07,09,13,02,31.90
2010,07,09,13,03,31.80
2010,07,09,13,04,31.80
2010,07,09,13,05,31.70
2010,07,09,13,06,31.70
2010,07,09,13,07,31.70
2010,07,09,13,08,31.70
2010,07,09,13,09,31.70
2010,07,09,13,10,31.70
2010,07,09,13,11,31.70
2010,07,09,13,12,31.80
2010,07,09,13,13,31.80
2010,07,09,13,14,31.90
2010,07,09,13,15,31.80
2010,07,09,13,16,31.80
2010,07,09,13,17,31.70
2010,07,09,13,18,31.70
2010,07,09,13,19,31.60
2010,07,09,13,20,31.60
2010,07,09,13,21,31.70
2010,07,09,13,22,31.70
2010,07,09,13,23,31.70
2010,07,09,13,24,31.70
2010,07,09,13,25,31.70
2010,07,09,13,26,31.70
2010,07,09,13,27,31.70
2010,07,09,13,28,31.70
2010,07,09,13,29,31.70
2010,07,09,13,30,31.60
2010,07,09,13,31,31.60
2010,07,09,13,32,31.60
2010,07,09,13,33,31.50
2010,07,09,13,34,31.40
2010,07,09,13,35,31.50
2010,07,09,13,36,31.50
2010,07,09,13,37,31.60
2010,07,09,13,38,31.50
2010,07,09,13,39,31.50
2010,07,09,13,40,31.50
2010,07,09,13,41,31.50
2010,07,09,13,42,31.60
2010,07,09,13,43,31.60
2010,07,09,13,44,31.60
2010,07,09,13,45,31.70
2010,07,09,13,46,31.80
2010,07,09,13,47,31.80
2010,07,09,13,48,31.80
2010,07,09,13,49,31.70
2010,07,09,13,50,31.70
2010,07,09,13,51,31.60
2010,07,09,13,52,31.50
2010,07,09,13,53,31.40
2010,07,09,13,54,31.30
2010,07,09,13,55,31.20
2010,07,09,13,56,31.30
2010,07,09,13,57,31.30
2010,07,09,13,58,31.40
2010,07,09,13,59,31.40
2010,07,09,14,00,31.40
2010,07,09,14,01,31.30
2010,07,09,14,02,31.30
2010,07,09,14,03,31.30
2010,07,09,14,04,31.30
2010,07,09,14,05,31.30
2010,07,09,14,06,31.40
2010,07,09,14,07,31.40
2010,07,09,14,08,31.40
2010,07,09,14,09,31.40
2010,07,09,14,10,31.50
2010,07,09,14,11,31.50
2010,07,09,14,12,31.60
2010,07,09,14,13,31.60
2010,07,09,14,14,31.60
2010,07,09,14,15,31.50
2010,07,09,14,16,31.50
2010,07,09,14,17,31.40
2010,07,09,14,18,31.40
2010,07,09,14,19,31.50
2010,07,09,14,20,31.50
2010,07,09,14,21,31.60
2010,07,09,14,22,31.70
2010,07,09,14,23,31.80
2010,07,09,14,24,31.80
2010,07,09,14,25,31.80
2010,07,09,14,26,31.70
2010,07,09,14,27,31.70
2010,07,09,14,28,31.70
2010,07,09,14,29,31.60
2010,07,09,14,30,31.50
2010,07,09,14,31,31.40
2010,07,09,14,32,31.40
2010,07,09,14,33,31.40
2010,07,09,14,34,31.40
2010,07,09,14,35,31.40
2010,07,09,14,36,31.40
2010,07,09,14,37,31.40
2010,07,09,14,38,31.40
2010,07,09,14,39,31.50
2010,07,09,14,40,31.50
2010,07,09,14,41,31.60
2010,07,09,14,42,31.70
2010,07,09,14,43,31.70
2010,07,09,14,44,31.80
2010,07,09,14,45,32.00
2010,07,09,14,46,32.00
2010,07,09,14,47,32.10
2010,07,09,14,48,32.10
2010,07,09,14,49,32.10
2010,07,09,14,50,32.10
2010,07,09,14,51,32.10
2010,07,09,14,52,32.10
2010,07,09,14,53,32.10
2010,07,09,14,54,32.10
2010,07,09,14,55,32.10
2010,07,09,14,56,32.20
2010,07,09,14,57,32.20
2010,07,09,14,58,32.10
2010,07,09,14,59,32.00
2010,07,09,15,00,31.90
2010,07,09,15,01,31.90
2010,07,09,15,02,31.90
2010,07,09,15,03,31.80
2010,07,09,15,04,31.70
2010,07,09,15,05,31.60
2010,07,09,15,06,31.50
2010,07,09,15,07,31.40
2010,07,09,15,08,31.40
2010,07,09,15,09,31.30
2010,07,09,15,10,31.30
2010,07,09,15,11,31.20
2010,07,09,15,12,31.10
2010,07,09,15,13,31.10
2010,07,09,15,14,31.00
2010,07,09,15,15,31.00
2010,07,09,15,16,30.90
2010,07,09,15,17,30.90
2010,07,09,15,18,30.90
2010,07,09,15,19,30.90
2010,07,09,15,20,30.90
2010,07,09,15,21,30.90
2010,07,09,15,22,31.00
2010,07,09,15,23,31.00
2010,07,09,15,24,31.00
2010,07,09,15,25,31.00
2010,07,09,15,26,31.00
2010,07,09,15,27,31.10
2010,07,09,15,28,31.10
2010,07,09,15,29,31.10
2010,07,09,15,30,31.10
2010,07,09,15,31,31.10
2010,07,09,15,32,31.10
2010,07,09,15,33,31.10
2010,07,09,15,34,31.10
2010,07,09,15,35,31.10
2010,07,09,15,36,31.10
2010,07,09,15,37,31.00
2010,07,09,15,38,31.00
2010,07,09,15,39,31.00
2010,07,09,15,40,30.90
2010,07,09,15,41,30.90
2010,07,09,15,42,30.80
2010,07,09,15,43,30.70
2010,07,09,15,44,30.60
2010,07,09,15,45,30.60
2010,07,09,15,46,30.60
2010,07,09,15,47,30.60
2010,07,09,15,48,30.60
2010,07,09,15,49,30.60
2010,07,09,15,50,30.60
2010,07,09,15,51,30.60
2010,07,09,15,52,30.60
2010,07,09,15,53,30.60
2010,07,09,15,54,30.70
2010,07,09,15,55,30.70
2010,07,09,15,56,30.70
2010,07,09,15,57,30.70
2010,07,09,15,58,30.70
2010,07,09,15,59,30.60
2010,07,09,16,00,30.60
2010,07,09,16,01,30.50
2010,07,09,16,02,30.40
2010,07,09,16,03,30.40
2010,07,09,16,04,30.40
2010,07,09,16,05,30.30
2010,07,09,16,06,30.30
2010,07,09,16,07,30.30
2010,07,09,16,08,30.30
2010,07,09,16,09,30.30
2010,07,09,16,10,30.20
2010,07,09,16,11,30.20
2010,07,09,16,12,30.10
2010,07,09,16,13,30.10
2010,07,09,16,14,30.00
2010,07,09,16,15,29.90
2010,07,09,16,16,29.80
2010,07,09,16,17,29.80
2010,07,09,16,18,29.70
2010,07,09,16,19,29.60
2010,07,09,16,20,29.50
2010,07,09,16,21,29.50
2010,07,09,16,22,29.40
2010,07,09,16,23,29.40
2010,07,09,16,24,29.40
2010,07,09,16,25,29.40
2010,07,09,16,26,29.40
2010,07,09,16,27,29.30
2010,07,09,16,28,29.30
2010,07,09,16,29,29.20
2010,07,09,16,30,29.20
2010,07,09,16,31,29.20
2010,07,09,16,32,29.20
2010,07,09,16,33,29.10
2010,07,09,16,34,29.10
2010,07,09,16,35,29.10
2010,07,09,16,36,29.10
2010,07,09,16,37,29.10
2010,07,09,16,38,29.10
2010,07,09,16,39,29.10
2010,07,09,16,40,29.10
2010,07,09,16,41,29.10
2010,07,09,16,42,29.10
2010,07,09,16,43,29.10
2010,07,09,16,44,29.10
2010,07,09,16,45,29.10
2010,07,09,16,46,29.10
2010,07,09,16,47,29.10
2010,07,09,16,48,29.10
2010,07,09,16,49,29.00
2010,07,09,16,50,29.00
2010,07,09,16,51,29.00
2010,07,09,16,52,28.90
2010,07,09,16,53,28.90
2010,07,09,16,54,28.80
2010,07,09,16,55,28.80
2010,07,09,16,56,28.70
2010,07,09,16,57,28.70
2010,07,09,16,58,28.60
2010,07,09,16,59,28.50
2010,07,09,17,00,28.50
2010,07,09,17,01,28.40
2010,07,09,17,02,28.40
2010,07,09,17,03,28.40
2010,07,09,17,04,28.40
2010,07,09,17,05,28.40
2010,07,09,17,06,28.40
2010,07,09,17,07,28.40
2010,07,09,17,08,28.40
2010,07,09,17,09,28.40
2010,07,09,17,10,28.40
2010,07,09,17,11,28.40
2010,07,09,17,12,28.40
2010,07,09,17,13,28.40
2010,07,09,17,14,28.40
2010,07,09,17,15,28.40
2010,07,09,17,16,28.40
2010,07,09,17,17,28.40
2010,07,09,17,18,28.40
2010,07,09,17,19,28.40